This is the latest recevied weather packets stored in our database for station/object N5LSN. If no packets are shown the sender has not sent any weather packets the latest 10 day(s).
| Time | Temp. | Humidity | Pressure | Rain* | Wind** | Luminosity | Snow |
|---|---|---|---|---|---|---|---|
| 1777934908 | 25° C | 52% | 1009.6 hPa | 0 mm | - | 193 W/m² | - |
| 1777934604 | 25.56° C | 52% | 1009.7 hPa | 0 mm | - | 197 W/m² | - |
| 1777934301 | 25.56° C | 53% | 1009.8 hPa | 0 mm | - | 288 W/m² | - |
| 1777933996 | 25.56° C | 51% | 1009.6 hPa | 0 mm | - | 254 W/m² | - |
| 1777933693 | 25.56° C | 52% | 1009.6 hPa | 0 mm | - | 307 W/m² | - |
| 1777933390 | 25.56° C | 52% | 1009.8 hPa | 0 mm | - | 193 W/m² | - |
| 1777933089 | 25.56° C | 52% | 1009.7 hPa | 0 mm | - | 124 W/m² | - |
| 1777932785 | 25.56° C | 52% | 1009.9 hPa | 0 mm | - | 129 W/m² | - |
| 1777932482 | 25° C | 51% | 1009.9 hPa | 0 mm | - | 137 W/m² | - |
| 1777932178 | 25° C | 51% | 1009.9 hPa | 0 mm | - | 158 W/m² | - |
| 1777931876 | 25° C | 50% | 1009.9 hPa | 0 mm | - | 185 W/m² | - |
| 1777931572 | 25.56° C | 52% | 1010.1 hPa | 0 mm | - | 164 W/m² | - |
| 1777931267 | 25.56° C | 50% | 1010.2 hPa | 0 mm | - | 150 W/m² | - |
| 1777930964 | 26.11° C | 49% | 1010.3 hPa | 0 mm | - | 174 W/m² | - |
| 1777930662 | 25.56° C | 50% | 1010.1 hPa | 0 mm | - | 173 W/m² | - |
| 1777930358 | 25.56° C | 49% | 1010.1 hPa | 0 mm | - | 252 W/m² | - |
| 1777930055 | 26.11° C | 50% | 1010.3 hPa | 0 mm | - | 452 W/m² | - |
| 1777929752 | 26.11° C | 47% | 1010.4 hPa | 0 mm | - | 547 W/m² | - |
| 1777929449 | 25.56° C | 49% | 1010.2 hPa | 0 mm | - | 495 W/m² | - |
| 1777929145 | 25.56° C | 48% | 1010.3 hPa | 0 mm | - | 585 W/m² | - |
| 1777928842 | 25.56° C | 49% | 1010.5 hPa | 0 mm | - | 576 W/m² | - |
| 1777928534 | 25.56° C | 48% | 1010.7 hPa | 0 mm | - | 635 W/m² | - |
| 1777928230 | 26.11° C | 47% | 1010.7 hPa | 0 mm | - | 607 W/m² | - |
| 1777927927 | 25.56° C | 48% | 1010.8 hPa | 0 mm | - | 606 W/m² | - |
| 1777927621 | 26.11° C | 47% | 1010.8 hPa | 0 mm | - | 666 W/m² | - |
* Rain latest hour (hover to see other rain measurements)
** Current wind speed in m/s (hover to see current wind gust speed)